[[{"header":{"parameterUnit":"m.s-1","parameterCategory":1,"la1":30.2991,"la2":30.254,"lo1":-89.0895,"lo2":-89.0444,"dy":0.0017,"dx":0.0017,"nx":28,"ny":28,"refTime":"2025-06-10T21:00:00:Z","depth":0,"parameterNumber":2,"parameterNumberName":"U-component_of_WINDS"},"data":[0,0,0,0,0,0,0,0,0,0,0,0,0,0,0,0,0,0,0,0,0,0,0,0,0,0,0,0,0,0,0,0,0,0,0,0,0,0,0,0,0,0,0,0,0,0,0,0,0,0,0,0,0,0,0,0,0,0,-0.6845,-0.6846,0,-0.6974,-0.6975,-0.6977,-0.6996,-0.6994,-0.6993,-0.6992,-0.713,-0.7135,-0.714,0,0,0,0,0,0,0,0,0,0,0,0,0,-0.6621,-0.6625,-0.6845,-0.6846,-0.6848,-0.6974,-0.6975,-0.6977,-0.6996,-0.6994,-0.6993,-0.6992,-0.7129,-0.7135,-0.714,0,0,0,0,0,0,0,0,0,0,0,0,0,-0.6731,-0.6627,-0.6844,-0.6872,-0.6876,-0.6973,-0.6976,-0.6978,-0.6996,-0.6994,-0.6993,-0.6991,-0.7127,-0.7134,-0.7141,-0.7222,0,0,-0.7163,-0.7166,0,0,0,0,0,0,0,0,-0.6725,-0.6739,-0.6866,-0.687,-0.6875,-0.6967,-0.6947,-0.706,-0.6997,-0.6951,-0.6992,-0.699,-0.7078,-0.7089,-0.7117,-0.7228,-0.7234,-0.7164,-0.7168,-0.7171,-0.7173,0,0,0,0,0,0,0,-0.6717,-0.6734,-0.6896,-0.6868,-0.6873,-0.6881,-0.6894,-0.6969,-0.7023,-0.6955,-0.6956,-0.6971,-0.708,-0.711,-0.7121,-0.7236,-0.7164,-0.717,-0.7174,-0.7177,-0.7423,-0.7425,0,0,0,0,0,0,-0.6704,-0.6728,-0.6892,-0.69,-0.6794,-0.6886,-0.6901,-0.6939,-0.7022,-0.7033,-0.6972,-0.6971,-0.7099,-0.7112,-0.7126,-0.7228,-0.7171,-0.7178,-0.7182,-0.7421,-0.7424,-0.7426,0,0,0,0,0,0,-0.6699,-0.6718,-0.6887,-0.6814,-0.6836,-0.6892,-0.6934,-0.6943,-0.6973,-0.7036,-0.7046,-0.6993,-0.7098,-0.7116,-0.7198,-0.7233,-0.7181,-0.7188,-0.7418,-0.7422,-0.7425,-0.7431,0,0,0,0,0,0,-0.6692,-0.6716,-0.6746,-0.6815,-0.684,-0.6955,-0.6936,-0.6946,-0.6985,-0.6985,-0.7058,-0.7068,-0.7098,-0.7187,-0.7205,-0.7242,-0.7193,-0.7416,-0.742,-0.7424,-0.7428,-0.7434,-0.744,0,0,0,0,0,-0.6684,-0.6743,-0.6747,-0.6767,-0.6877,-0.6956,-0.6971,-0.7002,-0.6987,-0.7019,-0.7059,-0.7066,-0.7226,-0.7195,-0.7216,-0.7255,-0.7414,-0.7419,-0.7423,-0.7426,-0.7433,-0.7439,0,0,0,0,0,0,-0.6678,-0.6752,-0.6758,-0.684,-0.6892,-0.6959,-0.7,-0.7009,-0.7068,-0.7065,-0.7103,-0.712,-0.7201,-0.7236,-0.7201,-0.7339,-0.7319,-0.7328,-0.7313,-0.7321,-0.7327,-0.7317,-0.7199,0,0,0,0,0,-0.6686,-0.6742,-0.6804,-0.6871,-0.6897,-0.6944,-0.6979,-0.6999,-0.7055,-0.7077,-0.7124,-0.718,-0.7243,-0.7284,-0.7345,-0.7433,-0.7451,-0.747,-0.7476,-0.748,-0.7489,-0.7541,-0.7551,-0.7442,-0.7442,-0.7442,0,0,-0.6704,-0.6751,-0.6784,-0.6871,-0.6913,-0.6973,-0.6962,-0.7025,-0.7071,-0.7088,-0.7168,-0.7205,-0.727,-0.7356,-0.7396,-0.7388,-0.7523,-0.7487,-0.749,-0.7496,-0.7547,-0.7558,-0.7567,-0.7446,-0.7445,-0.7445,0,0,-0.6766,-0.6806,-0.6868,-0.691,-0.6974,-0.7005,-0.702,-0.7087,-0.7111,-0.7192,-0.7207,-0.7263,-0.737,-0.7417,-0.7454,-0.7537,-0.7546,-0.7556,-0.7586,-0.7637,-0.7645,-0.7653,-0.7685,-0.7696,-0.7563,-0.7563,-0.7563,0,-0.6781,-0.6869,-0.6898,-0.6961,-0.7001,-0.7017,-0.7081,-0.7122,-0.7203,-0.7231,-0.722,-0.7356,-0.7401,-0.75,-0.752,-0.7549,-0.7569,-0.7548,-0.7641,-0.7649,-0.7657,-0.7688,-0.77,-0.7564,-0.7564,-0.7564,-0.7564,0,-0.6885,-0.6946,-0.6988,-0.7065,-0.7109,-0.7172,-0.7214,-0.7255,-0.7271,-0.7305,-0.7389,-0.7443,-0.7517,-0.7542,-0.7558,-0.7644,-0.7637,-0.7633,-0.7614,-0.7668,-0.7698,-0.771,-0.7565,-0.7565,-0.7565,-0.7565,0,0,-0.6948,-0.704,-0.7056,-0.7092,-0.7164,-0.7214,-0.7279,-0.7349,-0.7385,-0.7441,-0.7499,-0.759,-0.7587,-0.763,-0.7652,-0.7696,-0.7762,-0.7687,-0.769,-0.7701,-0.7863,-0.7867,-0.788,-0.7767,-0.777,-0.7772,-0.7858,0,-0.7021,-0.7135,-0.7165,-0.7264,-0.7323,-0.734,-0.7397,-0.7449,-0.7482,-0.7539,-0.7577,-0.7641,-0.7631,-0.7658,-0.7702,-0.7744,-0.7795,-0.7738,-0.7825,-0.7827,-0.781,-0.7895,-0.7899,-0.7978,-0.787,-0.7872,-0.7873,0,-0.7122,-0.7179,-0.7283,-0.7349,-0.7375,-0.7426,-0.7494,-0.7547,-0.7608,-0.7629,-0.7677,-0.7696,-0.7768,-0.7743,-0.7844,-0.7805,-0.7842,-0.7868,-0.7872,-0.7883,-0.7855,-0.7911,-0.8004,-0.8017,-0.7891,-0.789,-0.7889,0,-0.716,-0.7263,-0.7339,-0.737,-0.7448,-0.7484,-0.7519,-0.7578,-0.7619,-0.768,-0.7707,-0.7776,-0.7814,-0.7868,-0.7906,-0.7883,-0.8005,-0.7982,-0.8027,-0.8026,-0.8053,-0.8051,-0.8156,-0.8073,-0.8073,-0.8073,-0.8073,0,-0.724,-0.7304,-0.7358,-0.7405,-0.7478,-0.7513,-0.7585,-0.7621,-0.7673,-0.773,-0.7749,-0.7802,-0.7847,-0.7908,-0.7937,-0.8018,-0.8035,-0.8056,-0.8064,-0.8056,-0.8054,-0.8082,-0.8079,-0.8076,-0.8075,-0.8075,-0.8074,0,-0.7297,-0.7335,-0.742,-0.7487,-0.7506,-0.7557,-0.7616,-0.7665,-0.7698,-0.777,-0.7789,-0.7843,-0.7915,-0.7957,-0.8048,-0.8068,-0.8159,-0.8163,-0.8138,-0.8142,-0.8185,-0.8181,-0.8314,-0.8334,-0.8235,-0.8236,-0.8237,0,-0.7346,-0.7395,-0.7468,-0.7507,-0.7542,-0.7603,-0.7646,-0.7682,-0.7726,-0.7799,-0.7839,-0.7912,-0.7972,-0.8087,-0.8136,-0.8207,-0.8214,-0.8256,-0.8225,-0.8216,-0.8218,-0.8216,-0.8222,-0.8262,-0.8262,-0.8263,-0.8264,0,-0.7431,-0.7448,-0.7506,-0.7573,-0.7622,-0.7677,-0.7731,-0.7762,-0.7808,-0.7856,-0.7929,-0.7976,-0.8069,-0.8143,-0.8217,-0.8256,-0.8269,-0.8273,-0.8287,-0.8281,-0.8265,-0.8277,-0.8155,-0.827,-0.8269,-0.8269,-0.8269,-0.8268,-0.7487,-0.7533,-0.7592,-0.7658,-0.7702,-0.7752,-0.7801,-0.7841,-0.7902,-0.7979,-0.7998,-0.8075,-0.8138,-0.8239,-0.828,-0.8343,-0.8336,-0.8357,-0.8362,-0.8367,-0.837,-0.8253,-0.8357,-0.8356,-0.8356,-0.8356,-0.8356,0,-0.7576,-0.7614,-0.7674,-0.7749,-0.7802,-0.7806,-0.7867,-0.7912,-0.7979,-0.8035,-0.8093,-0.8179,-0.8251,-0.8305,-0.8379,-0.8419,-0.8427,-0.8438,-0.8436,-0.8446,-0.837,-0.8352,-0.843,-0.843,-0.843,-0.843,-0.843,-0.843,-0.7628,-0.7706,-0.773,-0.7832,-0.7871,-0.7945,-0.798,-0.8028,-0.8073,-0.8167,-0.8226,-0.826,-0.8317,-0.8395,-0.8462,-0.8476,-0.8504,-0.8514,-0.853,-0.8459,-0.8451,-0.8443,-0.8426,-0.8519,-0.8519,-0.86,-0.8601,-0.8601]},{"header":{"parameterUnit":"m.s-1","parameterCategory":1,"la1":30.2991,"la2":30.254,"lo1":-89.0895,"lo2":-89.0444,"dy":0.0017,"dx":0.0017,"nx":28,"ny":28,"refTime":"2025-06-10T21:00:00:Z","depth":0,"parameterNumber":3,"parameterNumberName":"V-component_of_WINDS"},"data":[0,0,0,0,0,0,0,0,0,0,0,0,0,0,0,0,0,0,0,0,0,0,0,0,0,0,0,0,0,0,0,0,0,0,0,0,0,0,0,0,0,0,0,0,0,0,0,0,0,0,0,0,0,0,0,0,0,0,1.6274,1.6273,0,1.6191,1.619,1.6189,1.6071,1.6069,1.6067,1.6065,1.5982,1.5982,1.5981,0,0,0,0,0,0,0,0,0,0,0,0,0,1.6328,1.6328,1.6274,1.6273,1.6272,1.6191,1.619,1.6189,1.6072,1.6069,1.6067,1.6064,1.5982,1.5982,1.5981,0,0,0,0,0,0,0,0,0,0,0,0,0,1.6281,1.6328,1.6274,1.6203,1.6196,1.6192,1.619,1.6189,1.6072,1.6069,1.6066,1.6063,1.5982,1.5982,1.5981,1.6039,0,0,1.598,1.5979,0,0,0,0,0,0,0,0,1.6284,1.6279,1.6215,1.6208,1.62,1.6138,1.6179,1.6139,1.6073,1.6119,1.6065,1.6062,1.6036,1.6031,1.6023,1.6035,1.6032,1.598,1.5979,1.5979,1.5979,0,0,0,0,0,0,0,1.6287,1.6282,1.6241,1.6214,1.6205,1.6175,1.6165,1.6171,1.6096,1.6115,1.6106,1.6098,1.6032,1.6023,1.602,1.603,1.598,1.5979,1.5979,1.5979,1.6083,1.6086,0,0,0,0,0,0,1.6301,1.6286,1.6244,1.6239,1.6235,1.6177,1.6166,1.6161,1.6096,1.6083,1.6101,1.6093,1.6026,1.602,1.6016,1.6078,1.5979,1.5979,1.5978,1.608,1.6083,1.6087,0,0,0,0,0,0,1.6303,1.6299,1.6247,1.626,1.6251,1.6179,1.6175,1.6161,1.6153,1.6085,1.6071,1.6106,1.6023,1.6017,1.6033,1.6073,1.5978,1.5978,1.6076,1.6081,1.6085,1.6203,0,0,0,0,0,0,1.6305,1.63,1.6322,1.6261,1.6251,1.6267,1.6178,1.6162,1.6152,1.6141,1.6086,1.6074,1.602,1.6035,1.6033,1.6071,1.5978,1.6072,1.6078,1.6084,1.6195,1.6211,1.6224,0,0,0,0,0,1.6307,1.6359,1.6324,1.6319,1.6277,1.6269,1.6263,1.62,1.6156,1.6177,1.6132,1.6076,1.6069,1.6038,1.6035,1.6073,1.6069,1.6077,1.6083,1.6188,1.6207,1.6224,0,0,0,0,0,0,1.6427,1.635,1.631,1.6343,1.6314,1.6249,1.6274,1.6223,1.6205,1.6196,1.6118,1.6107,1.6133,1.6104,1.607,1.6124,1.606,1.6067,1.6141,1.6159,1.6173,1.618,1.5977,0,0,0,0,0,1.6458,1.6458,1.639,1.6427,1.6414,1.6347,1.6341,1.6295,1.6261,1.6248,1.6205,1.6174,1.6164,1.616,1.6148,1.619,1.6175,1.6214,1.6229,1.6241,1.6248,1.6265,1.6281,1.6109,1.6109,1.6109,0,0,1.6521,1.6478,1.6484,1.645,1.6421,1.6423,1.6337,1.6343,1.6343,1.6249,1.6261,1.6229,1.6189,1.6217,1.6228,1.6195,1.6292,1.625,1.6261,1.626,1.6274,1.629,1.6304,1.6114,1.6113,1.6112,0,0,1.6635,1.6604,1.663,1.6602,1.656,1.6514,1.6521,1.6463,1.6437,1.6448,1.6377,1.6375,1.6362,1.6335,1.632,1.6422,1.6368,1.642,1.6497,1.6514,1.6528,1.6539,1.6574,1.6587,1.6427,1.6427,1.6428,0,1.6719,1.6719,1.665,1.6659,1.6645,1.6559,1.6583,1.656,1.6516,1.6508,1.6471,1.645,1.6417,1.6437,1.6462,1.6453,1.6456,1.6426,1.6532,1.6542,1.6552,1.6584,1.6597,1.6434,1.6433,1.6433,1.6432,0,1.6822,1.6823,1.6849,1.6807,1.6796,1.6814,1.6746,1.6743,1.6697,1.6655,1.6666,1.6623,1.66,1.6601,1.6557,1.6614,1.6594,1.6546,1.6481,1.6576,1.6605,1.6617,1.6443,1.6441,1.6439,1.6437,0,0,1.7012,1.693,1.694,1.6919,1.6865,1.6863,1.6876,1.6852,1.685,1.6822,1.6829,1.6818,1.6771,1.6754,1.6706,1.6722,1.6802,1.667,1.6668,1.6695,1.6859,1.6896,1.6911,1.6766,1.6768,1.677,1.6862,0,1.7115,1.7132,1.7068,1.7101,1.7099,1.7016,1.7026,1.6993,1.6954,1.6946,1.6902,1.6895,1.6836,1.6824,1.6836,1.679,1.6834,1.6783,1.6771,1.6771,1.6783,1.6926,1.6965,1.7055,1.6873,1.6875,1.6876,0,1.7238,1.7215,1.7248,1.7188,1.7185,1.7196,1.7167,1.7161,1.7121,1.7091,1.7071,1.7015,1.7021,1.6959,1.6965,1.6932,1.6922,1.6899,1.6901,1.6897,1.6829,1.6925,1.7082,1.7095,1.6893,1.6892,1.6891,0,1.7371,1.7348,1.7364,1.7348,1.7281,1.7289,1.7262,1.7218,1.7207,1.7182,1.7173,1.715,1.7137,1.7119,1.7057,1.7018,1.707,1.7003,1.7044,1.7046,1.7059,1.7059,1.7215,1.7055,1.7055,1.7054,1.7054,0,1.7492,1.7515,1.7422,1.7432,1.7454,1.738,1.7404,1.7367,1.7329,1.7329,1.7256,1.7257,1.7176,1.7168,1.7119,1.713,1.7125,1.71,1.7087,1.7106,1.7109,1.7099,1.7091,1.7058,1.7057,1.7057,1.7056,0,1.7645,1.7584,1.7595,1.7529,1.7513,1.7532,1.7475,1.748,1.7435,1.7436,1.7432,1.7361,1.7347,1.7284,1.7255,1.7222,1.7249,1.7224,1.7263,1.7254,1.7298,1.7294,1.7453,1.7469,1.73,1.7302,1.7303,0,1.7726,1.7741,1.7676,1.7671,1.7646,1.7638,1.7626,1.7553,1.7543,1.7497,1.7508,1.7488,1.7468,1.745,1.7395,1.7372,1.7345,1.7402,1.7341,1.7359,1.7344,1.7343,1.7343,1.7415,1.7417,1.7419,1.7421,0,1.7876,1.7844,1.7829,1.7803,1.779,1.7766,1.7738,1.7737,1.7657,1.7649,1.7633,1.7618,1.7588,1.7568,1.7535,1.7505,1.7449,1.744,1.7448,1.7468,1.7489,1.7476,1.7298,1.7437,1.7435,1.7434,1.7433,1.7432,1.7993,1.8002,1.7957,1.7942,1.7913,1.7887,1.7888,1.7843,1.7829,1.7798,1.7756,1.7746,1.7702,1.7653,1.7627,1.7616,1.7585,1.7597,1.76,1.7604,1.7613,1.7491,1.761,1.761,1.7609,1.7609,1.7608,0,1.8138,1.8104,1.8091,1.8053,1.8041,1.7989,1.7954,1.7947,1.7939,1.7903,1.7885,1.7866,1.7846,1.7789,1.7763,1.7765,1.7739,1.7761,1.7759,1.7753,1.7643,1.7638,1.7783,1.7783,1.7783,1.7783,1.7783,1.7782,1.8211,1.8222,1.8185,1.818,1.8146,1.8135,1.8119,1.8095,1.8066,1.8048,1.8031,1.7994,1.7949,1.7918,1.7897,1.788,1.7873,1.7904,1.7879,1.7778,1.7761,1.7745,1.774,1.7903,1.7904,1.7989,1.799,1.7991]}]]